Regional Weather Roundup
Issued by NWS Goodland, KS

Home | Current Version | Previous Version | Graphics & Text | Print | Product List | Glossary On
Versions: 1 2 3 4 5 6 7 8 9 10 11 12 13 14 15 16 17 18 19 20 21 22 23 24 25 26 27 28 29 30 31 32 33 34 35 36 37 38 39 40 41 42 43 44 45 46 47 48 49 50
000
ASUS43 KGLD 192308
RWRGLD

GOODLAND FORECAST AREA HOURLY WEATHER ROUNDUP
NATIONAL WEATHER SERVICE GOODLAND KS
500 PM MDT SUN OCT 19 2014

...OFFICIAL OBSERVATIONS...

CITY           SKY/WX    TMP DP  RH WIND       PRES   REMARKS
GOODLAND KS    SUNNY     73  42  32 NE12      30.02S
HILL CITY KS   CLEAR     74  47  38 CALM      29.97S
IMPERIAL NEB   SUNNY     74  38  27 E10       30.01R
MCCOOK NEB     CLEAR     72  47  40 NE7       29.99R
AKRON CO       SUNNY     72  38  29 E10       30.07S
BURLINGTON CO  SUNNY     74  36  25 NE8       30.05S
LIMON CO       SUNNY     71  32  23 N9        30.10S
$$

...UNOFFICIAL OBSERVATIONS...

CITY           SKY/WX    TMP DP  RH WIND       PRES   REMARKS
COLBY KS       SUNNY     72  50  46 N12       30.01S
GOVE KS          N/A     71  32  23 MISG        N/A
NORTON KS      CLEAR     70  43  37 CALM      29.98R
SHARON SPRINGS   N/A     74  44  33 N7G15       N/A
TRENTON NEB      N/A     74  32  21 NE8         N/A
KIT CARSON CO    N/A     75  41  30 N7G14       N/A
YUMA CO          N/A     74  39  27 N6          N/A
$$



USA.gov is the U.S. government's official web portal to all federal, state and local government web resources and services.